Date String (YYYY-MM-DD hh:mm:ss) UTC,Instrument flags,absolute air pressure of the measurement (hPa),sample flow rate (lpm),inlet stack bypass flow (lpm),air temperature of the measurement (°C),ambient temperature measured by the external sensor (°C),aerosol sample conditioner tube jacket temperature (°C),OPC LED temperature (°C),internal box temperature (°C),relative humidity of the measurement (%),span deviation,mass concentration of particles derived from Lorenz-Mie calculation of OPC scattering (μg/m³),mass concentration of particles derived from Lorenz-Mie calculation of OPC scattering (μg/m³),mass concentration of particles derived from Lorenz-Mie calculation of OPC scattering (μg/m³)
DateTimeUTC,F1_M11,P_M11,Q1_M11,Q2_M11,T1_M11,T2_M11,T3_M11,T4_M11,T5_M11,U1_M11,ZSPAN_M11,X2_M11,X0_M11,X1_M11
2023-10-19 15:00:00,SystemResetWarning,0835.0,4.99,000.00,029.6,027.7,000.0,037.9,031.3,14.0,0000.0,0003.25,0010.94,0001.85
2023-10-19 15:01:00,SystemResetWarning,0835.0,5.01,000.00,029.5,025.8,000.0,037.9,031.0,14.3,0000.0,0003.27,0011.20,0001.85
2023-10-19 15:02:00,SystemResetWarning,0835.0,5.00,000.00,029.4,024.7,000.0,037.8,030.7,14.4,0000.0,0003.28,0011.52,0001.86
2023-10-19 15:03:00,SystemResetWarning,0835.0,5.01,000.00,029.3,024.9,000.0,037.7,030.6,14.6,0000.0,0003.30,0012.19,0001.86
2023-10-19 15:04:00,SystemResetWarning,0834.9,5.01,000.00,029.2,025.2,000.0,037.7,030.5,14.6,0000.0,0003.32,0011.73,0001.85
2023-10-19 15:05:00,SystemResetWarning,0834.9,5.00,000.00,029.1,025.6,000.0,037.7,030.5,14.7,0000.0,0003.32,0011.83,0001.86
2023-10-19 15:06:00,SystemResetWarning,0835.0,4.99,000.00,029.0,026.0,000.0,037.7,030.5,14.7,0000.0,0003.28,0011.92,0001.85
2023-10-19 15:07:00,SystemResetWarning,0834.9,4.99,000.00,029.0,026.3,000.0,037.7,030.5,14.7,0000.0,0003.24,0012.57,0001.84
2023-10-19 15:08:00,SystemResetWarning,0835.0,5.00,000.00,029.0,026.6,000.0,037.7,030.6,14.4,0000.0,0003.24,0014.27,0001.85
2023-10-19 15:09:00,SystemResetWarning,0835.0,5.00,000.00,029.0,026.9,000.0,037.7,030.6,14.4,0000.0,0003.24,0014.30,0001.86
2023-10-19 15:10:00,SystemResetWarning,0835.0,5.00,000.00,029.0,027.1,000.0,037.6,030.6,14.4,0000.0,0003.23,0014.67,0001.86
2023-10-19 15:11:00,SystemResetWarning,0835.0,5.00,000.00,029.0,027.2,000.0,037.6,030.6,14.2,0000.0,0003.24,0014.58,0001.85
2023-10-19 15:12:00,SystemResetWarning,0835.0,5.00,000.00,029.0,027.4,000.0,037.6,030.7,14.1,0000.0,0003.22,0014.70,0001.86
2023-10-19 15:13:00,SystemResetWarning,0835.0,5.00,000.00,029.0,027.5,000.0,037.6,030.7,14.1,0000.0,0003.20,0015.23,0001.84
2023-10-19 15:14:00,SystemResetWarning,0835.0,4.99,000.00,029.1,027.6,000.0,037.6,030.8,14.2,0000.0,0003.18,0014.61,0001.82
2023-10-19 15:15:00,SystemResetWarning,0835.0,4.99,000.00,029.1,027.7,000.0,037.6,030.8,13.9,0000.0,0003.19,0014.55,0001.82
2023-10-19 15:16:00,SystemResetWarning,0835.1,5.00,000.00,029.1,027.8,000.0,037.6,030.8,14.4,0000.0,0003.19,0014.61,0001.82
2023-10-19 15:17:00,SystemResetWarning,0835.1,5.01,000.00,029.1,027.9,000.0,037.6,030.8,14.8,0000.0,0003.19,0014.43,0001.81
2023-10-19 15:18:00,SystemResetWarning,0835.1,5.01,000.00,029.2,027.9,000.0,037.6,030.9,14.2,0000.0,0003.22,0013.27,0001.81
2023-10-19 15:19:00,SystemResetWarning,0835.1,5.00,000.00,029.2,028.0,000.0,037.6,030.9,13.8,0000.0,0003.16,0011.14,0001.81
2023-10-19 15:20:00,SystemResetWarning,0835.1,5.00,000.00,029.2,028.1,000.0,037.7,030.9,13.9,0000.0,0003.18,0011.03,0001.80
2023-10-19 15:21:00,SystemResetWarning,0835.1,4.98,000.00,029.3,028.1,000.0,037.7,031.0,14.3,0000.0,0003.18,0010.88,0001.78
2023-10-19 15:22:00,SystemResetWarning,0835.1,5.00,000.00,029.3,028.2,000.0,037.7,031.0,14.8,0000.0,0003.20,0010.46,0001.78
2023-10-19 15:23:00,SystemResetWarning,0835.1,5.01,000.00,029.3,028.2,000.0,037.7,031.0,14.6,0000.0,0003.21,0009.79,0001.78
2023-10-19 15:24:00,SystemResetWarning,0835.2,5.00,000.00,029.3,028.2,000.0,037.7,031.1,14.4,0000.0,0003.22,0009.04,0001.79
2023-10-19 15:25:00,SystemResetWarning,0835.2,4.98,000.00,029.4,027.4,000.0,037.7,031.1,14.8,0000.0,0003.20,0008.43,0001.79
2023-10-19 15:26:00,SystemResetWarning,0835.1,5.01,000.00,029.3,025.8,000.0,037.6,030.8,15.0,0000.0,0003.16,0008.33,0001.79
2023-10-19 15:27:00,SystemResetWarning,0835.1,5.01,000.00,029.2,025.3,000.0,037.6,030.7,14.6,0000.0,0003.14,0008.16,0001.79
2023-10-19 15:28:00,SystemResetWarning,0835.2,5.00,000.00,029.1,025.5,000.0,037.6,030.5,14.8,0000.0,0003.13,0008.50,0001.79
2023-10-19 15:29:00,SystemResetWarning,0835.1,5.01,000.00,029.0,025.8,000.0,037.6,030.5,15.0,0000.0,0003.12,0008.66,0001.78
2023-10-19 15:30:00,SystemResetWarning,0835.1,5.00,000.00,029.0,026.2,000.0,037.6,030.5,15.0,0000.0,0003.12,0009.39,0001.77
2023-10-19 15:31:00,SystemResetWarning,0835.2,5.01,000.00,029.0,026.5,000.0,037.6,030.5,14.7,0000.0,0003.10,0009.02,0001.75
2023-10-19 15:32:00,SystemResetWarning,0835.3,5.00,000.00,029.0,026.8,000.0,037.6,030.6,14.5,0000.0,0003.12,0008.86,0001.76
2023-10-19 15:33:00,SystemResetWarning,0835.3,4.99,000.00,029.0,027.0,000.0,037.6,030.6,14.3,0000.0,0003.11,0008.80,0001.75
2023-10-19 15:34:00,SystemResetWarning,0835.3,4.99,000.00,029.0,027.2,000.0,037.6,030.7,14.3,0000.0,0003.06,0008.72,0001.76
2023-10-19 15:35:00,SystemResetWarning,0835.3,5.00,000.00,029.0,027.3,000.0,037.5,030.7,14.7,0000.0,0003.01,0009.16,0001.74
2023-10-19 15:36:00,SystemResetWarning,0835.3,5.00,000.00,029.0,027.5,000.0,037.5,030.7,14.6,0000.0,0003.10,0009.31,0001.72
2023-10-19 15:37:00,SystemResetWarning,0835.3,5.00,000.00,029.1,027.6,000.0,037.6,030.8,14.7,0000.0,0003.11,0009.42,0001.71
2023-10-19 15:38:00,SystemResetWarning,0835.2,5.00,000.00,029.1,027.7,000.0,037.6,030.8,14.6,0000.0,0003.13,0010.15,0001.70
2023-10-19 15:39:00,SystemResetWarning,0835.2,5.00,000.00,029.1,027.8,000.0,037.6,030.8,14.1,0000.0,0003.16,0010.07,0001.71
2023-10-19 15:40:00,SystemResetWarning,0835.2,4.99,000.00,029.1,027.9,000.0,037.6,030.9,13.7,0000.0,0003.22,0010.42,0001.73
2023-10-19 15:41:00,SystemResetWarning,0835.2,4.98,000.00,029.2,028.0,000.0,037.6,030.9,13.8,0000.0,0003.24,0009.76,0001.72
2023-10-19 15:42:00,SystemResetWarning,0835.2,5.01,000.00,029.2,028.1,000.0,037.6,030.9,14.3,0000.0,0003.27,0009.94,0001.73
2023-10-19 15:43:00,SystemResetWarning,0835.2,5.01,000.00,029.2,028.0,000.0,037.6,031.0,13.9,0000.0,0003.21,0010.80,0001.72
2023-10-19 15:44:00,SystemResetWarning,0835.2,4.98,000.00,029.2,026.6,000.0,037.6,030.9,14.0,0000.0,0003.21,0010.90,0001.73
2023-10-19 15:45:00,SystemResetWarning,0835.3,5.00,000.00,029.1,025.2,000.0,037.5,030.6,14.1,0000.0,0003.22,0011.32,0001.72
2023-10-19 15:46:00,SystemResetWarning,0835.3,5.01,000.00,029.0,025.1,000.0,037.5,030.5,14.1,0000.0,0003.27,0011.13,0001.73
2023-10-19 15:47:00,SystemResetWarning,0835.3,5.00,000.00,028.9,025.4,000.0,037.5,030.4,14.1,0000.0,0003.24,0011.13,0001.74
2023-10-19 15:48:00,SystemResetWarning,0835.3,5.00,000.00,028.9,025.8,000.0,037.5,030.4,14.5,0000.0,0003.28,0011.23,0001.75
2023-10-19 15:49:00,SystemResetWarning,0835.3,5.00,000.00,028.9,026.1,000.0,037.5,030.4,14.8,0000.0,0003.29,0011.78,0001.76
2023-10-19 15:50:00,SystemResetWarning,0835.3,5.00,000.00,028.9,026.5,000.0,037.5,030.5,14.7,0000.0,0003.28,0011.22,0001.75
2023-10-19 15:51:00,SystemResetWarning,0835.2,5.00,000.00,028.9,026.7,000.0,037.5,030.5,14.4,0000.0,0003.27,0010.87,0001.74
2023-10-19 15:52:00,SystemResetWarning,0835.2,5.00,000.00,028.9,027.0,000.0,037.4,030.5,14.4,0000.0,0003.26,0010.73,0001.74
2023-10-19 15:53:00,SystemResetWarning,0835.3,5.00,000.00,028.9,027.2,000.0,037.4,030.6,14.5,0000.0,0003.23,0010.51,0001.73
2023-10-19 15:54:00,SystemResetWarning,0835.3,5.00,000.00,028.9,027.3,000.0,037.4,030.6,14.4,0000.0,0003.25,0009.44,0001.74
2023-10-19 15:55:00,SystemResetWarning,0835.2,5.00,000.00,028.9,027.5,000.0,037.4,030.7,14.3,0000.0,0003.27,0009.15,0001.73
2023-10-19 15:56:00,SystemResetWarning,0835.3,5.00,000.00,029.0,027.6,000.0,037.5,030.7,14.3,0000.0,0003.26,0008.91,0001.71
2023-10-19 15:57:00,SystemResetWarning,0835.3,5.00,000.00,029.0,027.7,000.0,037.5,030.8,14.2,0000.0,0003.22,0010.75,0001.70
2023-10-19 15:58:00,SystemResetWarning,0835.3,5.00,000.00,029.0,027.8,000.0,037.5,030.8,13.9,0000.0,0003.22,0010.80,0001.70
2023-10-19 15:59:00,SystemResetWarning,0835.3,4.99,000.00,029.1,027.9,000.0,037.5,030.9,14.1,0000.0,0003.25,0010.83,0001.70
